Regional Weather Roundup
Issued by NWS

Home | Current Version | Previous Version | Text Only | Print | Product List | Glossary On
Versions: 1 2 3 4 5 6 7 8 9 10 11 12 13 14 15 16 17 18 19 20 21 22 23 24 25 26 27 28 29 30 31 32 33 34 35 36 37 38 39 40 41 42 43 44 45 46 47 48 49 50
000
ASUS44 KMEG 211210
RWRTN
TENNESSEE HOURLY STATE WEATHER ROUNDUP
NATIONAL WEATHER SERVICE MEMPHIS TN
700 AM CDT SAT APR 21 2018

TNZ002-004-019-021-049-052-054-088>092-211300-
WEST TENNESSEE

CITY           SKY/WX    TMP DP  RH WIND       PRES   REMARKS
MEMPHIS INTL   MOCLDY    48  35  60 E5        30.23R
NWS MEMPHIS      N/A     42 N/A N/A MISG        N/A
JACKSON        FAIR      49  32  52 E6        30.28R
DYERSBURG      FAIR      45  34  65 NE3       30.29R
SOMERVILLE     CLEAR     45  34  65 CALM      30.24R
COVINGTON      CLEAR     46  34  61 CALM      30.27R
UNION CITY     CLEAR     48  32  53 CALM      30.29R
BOLIVAR        CLEAR     37  36  93 CALM      30.26R
PARIS          CLEAR     48  32  53 E6        30.29R
HUNTINGDON     CLEAR     46  32  57 E3        30.29R
LEXINGTON      CLEAR     41  36  81 CALM      30.28S
SELMER         CLEAR     45  34  65 E5        30.27R
SAVANNAH       CLEAR     39  37  93 CALM      30.28R
$$

TNZ008-025-027-028-033-062-065-066-211300-
NORTH MIDDLE TENNESSEE

CITY           SKY/WX    TMP DP  RH WIND       PRES   REMARKS
NASHVILLE      FAIR      40  35  83 CALM      30.32R
PORTLAND       SUNNY     46  30  53 CALM      30.32R
CLARKSVILLE    FAIR      44  32  62 E6        30.32R
SMYRNA         FAIR      39  34  82 CALM      30.34R
COOKEVILLE     SUNNY     39  37  93 CALM      30.31R
LIVINGSTON     SUNNY     48  23  37 CALM      30.32R
GALLATIN       SUNNY     45  32  61 CALM      30.35R
CROSSVILLE     FAIR      46  25  43 E3        30.33S
ROCKWOOD       SUNNY     48  19  32 E6        30.33S
$$

TNZ061-075-076-078-094-096-097-211300-
SOUTH MIDDLE TENNESSEE

CITY           SKY/WX    TMP DP  RH WIND       PRES   REMARKS
LEWISBURG      SUNNY     37  34  87 CALM      30.32R
FAYETTEVILLE   CLEAR     46  36  66 CALM      30.30R
TULLAHOMA      SUNNY     41  32  70 CALM      30.31R
WINCHESTER     SUNNY     50  32  50 CALM      30.31R
MCMINNVILLE    SUNNY     43  34  70 CALM      30.32R
COLUMBIA       CLEAR     39  39 100 CALM      30.30R
SHELBYVILLE    SUNNY     37  36  93 CALM      30.31R
$$

TNZ017-018-042-046-047-211300-
NORTHEAST TENNESSEE

CITY           SKY/WX    TMP DP  RH WIND       PRES   REMARKS
TRI CITIES     FAIR      39  31  72 CALM      30.39R
ELIZABETHTON   FAIR      43  28  56 E6        30.40R
$$

TNZ012-013-036-069-073-074-211300-
CENTRAL EAST TENNESSEE

CITY           SKY/WX    TMP DP  RH WIND       PRES   REMARKS
KNOXVILLE      FAIR      42  36  79 CALM      30.35R
OAK RIDGE      FAIR      43  35  73 CALM      30.37R
DOWNTOWN KNOXV SUNNY     39  39 100 CALM      30.37R
GATLINBURG     SUNNY     36  32  87 CALM      30.36S
MORRISTOWN     SUNNY     45  25  45 NE5       30.36R
JACKSBORO      SUNNY     36  32  87 CALM      30.41R
$$

TNZ083-085-099-211300-
SOUTHEAST TENNESSEE

CITY           SKY/WX    TMP DP  RH WIND       PRES   REMARKS
CHATTANOOGA    FAIR      41  38  89 CALM      30.35R
DAYTON         SUNNY     41  39  93 CALM      30.34S
$$

SKY/WX REPORTED AS FAIR MEANS FEW OR NO CLOUDS BELOW
12 THOUSAND FEET.





USA.gov is the U.S. government's official web portal to all federal, state and local government web resources and services.